#timestamp,LO_Frequency,Hit,StdDev 
1702195215.3,286047001.3,N
1702195235.2,286047003.1,N
1702195255.9,286047006.8,Y
1702195275.7,286047004.8,P
1702195295.6,286047003.8,P
1702195315.4,286046999.9,N
1702195335.3,286046999.8,N
1702195355.1,286047000.2,N
1702195356.0,286047000.2,N
1702195375.8,286047001.6,N
1702195395.7,286047001.8,N
1702195415.5,286047004.2,N
1702195435.3,286047001.5,N
1702195455.2,286047004.4,N
1702195475.0,286047001.9,N
1702195475.9,286047001.9,N
1702195495.8,286047004.0,N
1702195515.6,286047002.1,N
1702195535.4,286047000.6,N
1702195555.3,286046998.6,N
1702195575.1,286046999.8,N
1702195595.8,286046998.7,N
1702195615.7,286046999.1,N
1702195635.5,286046998.7,N
1702195655.4,286046999.1,N
1702195675.2,286046996.5,N
1702195695.0,286046999.3,N
1702195695.9,286046999.3,N
1702195715.8,286046999.2,N
1702195735.6,286046998.1,N
1702195755.4,286047000.6,N
1702195775.3,286047001.0,N
1702195795.1,286046999.9,N
1702195815.9,286047000.0,N
1702195835.7,286047000.1,N
1702195855.5,286047000.0,N
1702195875.4,286047000.9,N
1702195895.2,286047002.6,N
1702195915.0,286047001.0,N
1702195915.9,286047001.0,N
1702195935.8,286046999.0,N
1702195955.6,286047002.4,N
1702195975.5,286047001.8,N
1702195995.3,286047003.9,N
1702196015.1,286047005.5,Y
1702196035.9,286047003.6,P
1702196055.7,286047003.8,N
1702196075.6,286047001.6,N
1702196095.4,286047000.5,N
1702196115.2,286047000.5,N
1702196135.1,286047000.8,N
1702196136.0,286047000.8,N
1702196155.8,286046998.4,N
1702196175.6,286047002.6,N
1702196195.5,286047000.1,N
1702196215.3,286047002.0,N
1702196235.1,286047002.8,N
1702196255.9,286047002.3,N
1702196275.7,286047001.9,N
1702196295.6,286047002.4,N
1702196315.4,286046998.6,N
1702196335.2,286046998.9,N
1702196355.1,286046998.7,N
1702196356.0,286046998.7,N
1702196375.8,286047000.0,N
1702196395.6,286047000.4,N
1702196415.5,286047000.6,N
1702196435.3,286046998.7,N
1702196455.2,286047000.9,N
1702196475.9,286047001.4,N
1702196495.7,286047002.2,N
1702196515.6,286047002.5,N
1702196535.4,286047001.6,N
1702196555.3,286047002.6,N
1702196575.1,286047001.4,N
1702196576.0,286047001.4,N
1702196595.8,286047002.8,N
1702196615.7,286047000.0,N
1702196635.5,286046998.4,N
1702196655.3,286046996.7,N
1702196675.2,286046997.1,N
1702196695.0,286046999.2,N
1702196695.9,286046999.2,N
1702196715.8,286046998.9,N
1702196735.6,286046998.1,N
1702196755.4,286047000.8,N
1702196775.3,286047000.1,N
1702196795.1,286047001.1,N
1702196815.8,286046996.7,N
1702196835.7,286046996.5,N
1702196855.5,286046998.5,N
1702196875.4,286046998.6,N
1702196895.2,286046999.0,N
1702196915.0,286046999.3,N
1702196915.9,286046999.3,N
1702196935.8,286046998.4,N
1702196955.6,286046999.5,N
1702196975.4,286047000.9,N
1702196995.3,286047000.7,N
1702197015.1,286047000.0,N
1702197035.9,286046998.5,N
1702197055.7,286047000.8,N
1702197075.5,286046999.7,N
1702197095.4,286047001.3,N
1702197115.2,286046999.8,N
1702197135.0,286047000.3,N
1702197135.9,286047000.3,N
1702197155.8,286047002.4,N
1702197175.6,286047004.1,N
1702197195.5,286047003.4,N
1702197215.3,286047005.2,Y
1702197235.1,286047005.8,P
1702197255.9,286047006.0,N
1702197275.7,286047001.6,N
1702197295.5,286047000.1,N
1702197315.4,286047000.3,N
1702197335.2,286046999.8,N
1702197355.1,286047000.1,N
1702197356.0,286047000.1,N
1702197375.8,286047002.7,N
1702197395.6,286047002.3,N
1702197415.5,286047002.3,N
1702197435.3,286047002.0,N
1702197455.2,286047002.1,N
1702197475.9,286047002.5,N
1702197495.7,286047002.3,N
1702197515.6,286047001.0,N
1702197535.4,286046998.7,N
1702197555.2,286046999.1,N
1702197575.1,286046999.0,N
1702197576.0,286046999.0,N
1702197595.8,286046998.7,N
1702197615.7,286046998.6,N
1702197635.5,286046998.9,N
1702197655.3,286046997.2,N
1702197675.2,286046996.7,N
1702197695.9,286046996.5,N
1702197715.7,286046997.6,N
1702197735.6,286046998.0,N
1702197755.4,286046996.0,N
1702197775.2,286046996.1,N
1702197795.1,286046999.3,N
1702197796.0,286046999.3,N
1702197815.8,286047000.9,N
1702197835.7,286046999.2,N
1702197855.5,286046996.9,N
1702197875.3,286046998.8,N
1702197895.2,286046996.5,N
1702197915.0,286046999.4,N
1702197915.9,286046999.4,N
1702197935.8,286046997.6,N
1702197955.6,286046996.7,N
1702197975.4,286047001.0,N
1702197995.3,286046995.3,N
1702198015.1,286046996.1,N
1702198035.8,286046995.1,N
1702198055.7,286046996.8,N
1702198075.5,286046995.1,Y
1702198095.4,286046994.9,P
1702198115.2,286046997.9,N
1702198135.0,286046999.4,N
1702198135.9,286046999.4,N
1702198155.8,286046996.9,N
1702198175.6,286046999.4,N
1702198195.4,286046999.3,N
1702198215.3,286046998.8,N
1702198235.1,286046997.5,N
1702198255.9,286046997.2,N
1702198275.7,286046997.4,N
1702198295.5,286046997.8,N
1702198315.4,286046995.8,Y
1702198335.2,286047000.8,P
1702198355.0,286047000.8,N
1702198355.9,286047000.8,N
1702198375.8,286047000.4,N
1702198395.6,286047000.9,N
1702198415.5,286047000.5,N
1702198435.3,286047000.3,N
1702198455.1,286047000.8,N
1702198475.9,286046999.1,N
1702198495.7,286046996.6,Y
1702198515.5,286046995.3,P
1702198535.4,286046995.4,N
1702198555.2,286046997.6,N
1702198575.0,286046994.9,N
1702198576.0,286046994.9,N
1702198595.8,286046997.4,N
1702198615.6,286046997.7,N
1702198635.5,286046995.2,N
1702198655.3,286046995.1,N
1702198675.1,286046995.5,N
1702198695.9,286046995.3,N
1702198715.7,286046995.5,N
1702198735.5,286046997.6,N
1702198755.4,286046997.7,N
1702198775.2,286046997.7,N
1702198795.1,286046995.2,Y
1702198796.0,286046995.2,P
